Regional Weather Roundup
Issued by NWS

Home | Current Version | Previous Version | Text Only | Print | Product List | Glossary Off
Versions: 1 2 3 4 5 6 7 8 9 10 11 12 13 14 15 16 17 18 19 20 21 22 23 24 25 26 27 28 29 30 31 32 33 34 35 36 37 38 39 40 41 42 43 44 45 46 47 48 49 50

000
ASUS43 KIND 270959
RWRIN

WEATHER ROUNDUP FOR INDIANA
NATIONAL WEATHER SERVICE INDIANAPOLIS IN
500 AM EST FRI FEB 27 2015

NOTE: "FAIR" INDICATES FEW OR NO CLOUDS BELOW 12,000 FEET WITH NO
SIGNIFICANT WEATHER AND/OR OBSTRUCTIONS TO VISIBILITY.

* - STATION DOES NOT REPORT WEATHER SUCH AS PRECIPITATION OR FOG.

+ - STATION NOT QUALITY CONTROLLED BY THE NATIONAL WEATHER SERVICE.
    USE DATA WITH CAUTION...ESPECIALLY DEWPOINT AND RELATIVE
    HUMIDITY OBSERVATIONS.

INZ001>003-010>013-019-020-271100-
NORTHWEST INDIANA

CITY           SKY/WX    TMP DP  RH WIND       PRES   REMARKS
MONTICELLO +   CLEAR     -6 -10  84 SW3       30.46R
VALPARAISO     NOT AVBL

$$

LMZ046-743>745-271100-
SOUTHERN LAKE MICHIGAN

STATION/POSITION TIME  TEMP WIND        PRES
                       AIR  DIR/SP/G
                 (UTC) (F)  (DEG/KT/KT) (MB)
MICHIGAN CITY    0900    9   60/  3/  3   N/A

$$

INZ004-005-014>016-021>024-271100-
NORTH CENTRAL INDIANA

CITY           SKY/WX    TMP DP  RH WIND       PRES   REMARKS
GOSHEN         CLEAR     -5 -14  65 CALM      30.43R
SOUTH BEND     CLEAR     -3 -11  68 CALM      30.45R

$$

INZ006>009-017-018-025>027-271100-
NORTHEAST INDIANA

CITY           SKY/WX    TMP DP  RH WIND       PRES   REMARKS
ANGOLA *+      CLEAR    -15 -18  84 CALM      30.40R
FORT WAYNE     PTCLDY    -2  -8  76 CALM      30.44R

$$

INZ028-029-035-036-043>045-051>053-271100-
WEST CENTRAL INDIANA

CITY           SKY/WX    TMP DP  RH WIND       PRES   REMARKS
CRAWFORDSVL +  CLOUDY     3  -5  69 W5        30.47R WCI  -6
GREENCASTLE +  CLOUDY     7   0  72 CALM      30.47R
LAFAYETTE      CLEAR     -1  -6  79 CALM      30.49R
TERRE HAUTE    CLOUDY     7  -1  70 NW5       30.50R WCI  -2

$$

INZ030>032-037>040-046>048-054>057-064-065-271100-
CENTRAL INDIANA

CITY           SKY/WX    TMP DP  RH WIND       PRES   REMARKS
GREENWOOD *+   CLEAR      1  -4  78 CALM      30.46R
INDIANAPOLIS   PTCLDY     4   1  88 W5        30.45R WCI  -5
-EAGLE CREEK   PTCLDY     4   1  88 NW5       30.45R WCI  -5
KOKOMO *+      CLEAR      3  -2  78 W8        30.44R WCI -10
MT COMFORT *+  CLEAR      1  -8  66 CALM      30.44S
SHELBYVILLE    CLEAR      4  -2  76 NW5       30.45R WCI  -5

$$

INZ033-034-041-042-049-050-058-059-271100-
EAST CENTRAL INDIANA

CITY           SKY/WX    TMP DP  RH WIND       PRES   REMARKS
MUNCIE         CLEAR      1  -3  83 W5        30.43R WCI  -9

$$

INZ060-061-067>069-081>083-085>088-271100-
SOUTHWEST INDIANA

CITY           SKY/WX    TMP DP  RH WIND       PRES   REMARKS
EVANSVILLE     CLEAR     15   8  73 NW6       30.52R WCI   6
HUNTINGBURG *+ CLEAR     10   1  67 N6        30.49S WCI   1

$$

INZ062-063-066-070>080-084-089>092-271100-
SOUTH CENTRAL AND SOUTHEAST INDIANA

CITY           SKY/WX    TMP DP  RH WIND       PRES   REMARKS
BLOOMINGTON    FAIR      -3  -8  79 CALM      30.46R
SEYMOUR +      CLEAR     -2  -8  78 CALM      30.49R

$$




USA.gov is the U.S. government's official web portal to all federal, state and local government web resources and services.